Weather History for West Plains, MO

Change the Weather History Date:

Monday, September 30, 2013

  Actual Average Record
Temperature  
Mean Temperature 68 °F 63 °F  
Max Temperature 75 °F 75 °F 92 °F (1952)
Min Temperature 62 °F 50 °F 31 °F (1949)
Degree Days  
Heating Degree Days 0 4  
Month to date heating degree days 16 39  
Since 1 July heating degree days 20 42  
Cooling Degree Days 2 2  
Month to date cooling degree days 196 156  
Year to date cooling degree days 1038 1328  
Growing Degree Days 18 (Base 50)    
Moisture  
Dew Point 63 °F    
Average Humidity 84    
Maximum Humidity 100    
Minimum Humidity 68    
Precipitation  
Precipitation 0.01 in 0.14 in 1.87 in (1962)
Month to date precipitation 1.65 4.09  
Year to date precipitation 43.88 34.16  
Sea Level Pressure  
Sea Level Pressure 29.96 in    
Wind  
Wind Speed 5 mph (SE)    
Max Wind Speed 12 mph    
Max Gust Speed 15 mph    
Visibility 6 miles    
Events Fog    
T = Trace of Precipitation, MM = Missing Value Source: NWS Daily Summary

Daily Weather History Graph

Daily Weather History Graph

Search for Another Location

Airport:

Trip Planner

Search our weather history database for the weather conditions in past years. The results will help you decide how hot, cold, wet, or windy it might be!

Date:

Astronomy

Sep. 30, 2013 Rise Set
Actual Time 7:02 AM CDT 6:52 PM CDT
Civil Twilight 6:36 AM CDT 7:17 PM CDT
Nautical Twilight 6:06 AM CDT 7:47 PM CDT
Astronomical Twilight 5:36 AM CDT 8:18 PM CDT
Moon 2:45 AM CDT (9/30) 4:18 PM CDT (9/30)
Length of Visible Light 12h 41m
Length of Day
11h 49m
Waning Crescent, 19% of the Moon is Illuminated
Sep 30
Waning Crescent
Oct 4
New
Oct 11
First Quarter
Oct 18
Full
Oct 26
Last Quarter

Hourly Weather History & Observations

Time (CDT) Temp. Dew Point Humidity Pressure Visibility Wind Dir Wind Speed Gust Speed Precip Events Conditions
12:53 AM 63.0 °F 62.1 °F 97% 29.96 in 9.0 mi East 3.5 mph - N/A   Overcast
1:05 AM 62.6 °F 62.6 °F 100% 29.98 in 9.0 mi Calm Calm - N/A   Overcast
1:24 AM 64.4 °F 62.6 °F 94% 29.98 in 9.0 mi ESE 3.5 mph - N/A   Overcast
1:53 AM 64.0 °F 62.1 °F 93% 29.96 in 7.0 mi ESE 3.5 mph - N/A   Overcast
2:01 AM 64.4 °F 62.6 °F 94% 29.98 in 8.0 mi SE 3.5 mph - N/A   Overcast
2:53 AM 64.0 °F 62.1 °F 93% 29.95 in 6.0 mi Calm Calm - N/A   Overcast
3:48 AM 62.6 °F 62.6 °F 100% 29.97 in 1.8 mi SE 3.5 mph - N/A   Overcast
3:53 AM 63.0 °F 62.1 °F 97% 29.94 in 1.2 mi SE 3.5 mph - N/A   Overcast
4:02 AM 62.6 °F 62.6 °F 100% 29.96 in 1.0 mi ESE 3.5 mph - N/A   Mist
4:09 AM 62.6 °F 62.6 °F 100% 29.96 in 0.8 mi East 3.5 mph - N/A   Mist
4:16 AM 62.6 °F 62.6 °F 100% 29.96 in 1.2 mi ESE 4.6 mph - N/A   Overcast
4:37 AM 62.6 °F 62.6 °F 100% 29.96 in 1.0 mi SE 3.5 mph - N/A   Mist
4:49 AM 62.6 °F 62.6 °F 100% 29.96 in 0.8 mi SSE 3.5 mph - N/A   Mist
4:53 AM 63.0 °F 63.0 °F 100% 29.94 in 0.5 mi SSE 4.6 mph - N/A Fog Fog
5:53 AM 63.0 °F 63.0 °F 100% 29.94 in 0.5 mi SE 3.5 mph - N/A Fog Fog
6:53 AM 63.0 °F 62.1 °F 97% 29.96 in 0.5 mi Calm Calm - N/A Fog Fog
7:53 AM 63.0 °F 62.1 °F 97% 29.97 in 0.5 mi South 3.5 mph - 0.01 in Fog Fog
8:22 AM 62.6 °F 62.6 °F 100% 30.00 in 1.2 mi Calm Calm - N/A   Overcast
8:27 AM 62.6 °F 62.6 °F 100% 30.00 in 3.0 mi Calm Calm - N/A   Overcast
8:53 AM 63.0 °F 62.1 °F 97% 29.98 in 4.0 mi Calm Calm - N/A   Overcast
9:46 AM 64.4 °F 62.6 °F 94% 30.00 in 10.0 mi SSE 3.5 mph - N/A   Overcast
9:53 AM 64.9 °F 62.1 °F 90% 29.98 in 10.0 mi East 4.6 mph - N/A   Overcast
10:18 AM 66.2 °F 62.6 °F 88% 30.00 in 10.0 mi SE 4.6 mph - N/A   Overcast
10:42 AM 68.0 °F 62.6 °F 83% 30.00 in 10.0 mi East 4.6 mph - N/A   Overcast
10:53 AM 69.1 °F 63.0 °F 81% 29.97 in 10.0 mi Variable 5.8 mph - N/A   Overcast
11:32 AM 69.8 °F 62.6 °F 78% 30.00 in 10.0 mi SE 6.9 mph - N/A   Mostly Cloudy
11:53 AM 70.0 °F 62.1 °F 76% 29.96 in 10.0 mi ESE 6.9 mph - N/A   Scattered Clouds
12:15 PM 71.6 °F 62.6 °F 73% 29.99 in 10.0 mi ESE 6.9 mph - N/A   Mostly Cloudy
12:32 PM 71.6 °F 62.6 °F 73% 29.99 in 10.0 mi ESE 6.9 mph - N/A   Scattered Clouds
12:53 PM 71.1 °F 62.1 °F 73% 29.95 in 10.0 mi SE 8.1 mph - N/A   Mostly Cloudy
1:03 PM 71.6 °F 62.6 °F 73% 29.98 in - North - - N/A   Unknown
1:53 PM 72.0 °F - N/A% 29.94 in - SE 5.8 mph - N/A   Unknown
2:53 PM - - N/A% 29.94 in - South 8.1 mph - N/A   Unknown
3:53 PM - - N/A% 29.93 in - SE 6.9 mph - N/A   Unknown
4:53 PM 73.9 °F 62.1 °F 66% 29.90 in 10.0 mi SSE 10.4 mph - N/A   Clear
5:53 PM 73.0 °F 63.0 °F 71% 29.90 in 10.0 mi SSE 6.9 mph - N/A   Clear
6:53 PM 70.0 °F 63.0 °F 78% 29.91 in 10.0 mi SE 4.6 mph - N/A   Clear
7:53 PM 68.0 °F 63.0 °F 84% 29.92 in 10.0 mi ESE 5.8 mph - N/A   Clear
8:53 PM 66.0 °F 63.0 °F 90% 29.94 in 10.0 mi SE 4.6 mph - N/A   Clear
9:53 PM 66.0 °F 64.0 °F 93% 29.94 in 9.0 mi SE 4.6 mph - N/A   Clear
10:17 PM 66.2 °F 64.4 °F 94% 29.97 in 8.0 mi SE 5.8 mph - N/A   Scattered Clouds
10:26 PM 66.2 °F 64.4 °F 94% 29.97 in 7.0 mi SE 5.8 mph - N/A   Mostly Cloudy
10:53 PM 66.0 °F 64.9 °F 96% 29.94 in 6.0 mi SE 6.9 mph - N/A   Overcast
11:53 PM 66.9 °F 66.0 °F 97% 29.94 in 3.0 mi SE 6.9 mph - N/A   Overcast